Regional Weather Roundup
Issued by NWS

Home | Current Version | Previous Version | Text Only | Print | Product List | Glossary On
Versions: 1 2 3 4 5 6 7 8 9 10 11 12 13 14 15 16 17 18 19 20 21 22 23 24 25 26 27 28 29 30 31 32 33 34 35 36 37 38 39 40 41 42 43 44 45 46 47 48 49 50
686
ASUS44 KLIX 240510
RWRLA
LOUISIANA WEATHER ROUNDUP
NATIONAL WEATHER SERVICE NEW ORLEANS LA
1200 AM CDT FRI OCT 24 2014

NOTE: "FAIR" INDICATES FEW OR NO CLOUDS BELOW 12,000 FEET WITH NO
      SIGNIFICANT WEATHER AND/OR OBSTRUCTIONS TO VISIBILITY.
      SKY/WX - SKY CONDITION AND SIGNIFICANT WEATHER.
      TMP - AIR TEMPERATURE.    DP   - DEWPOINT TEMPERATURE.
      RH  - RELATIVE HUMIDITY.  PRES - PRESSURE.
      HX  - HEAT INDEX.         WCI  - WIND CHILL INDEX.

*  THESE STATIONS ARE NOT NWS OR FAA STATIONS AND ARE NOT UNDER
   NWS QUALITY CONTROL.

LAZ040-048-061>063-065-066-069-240600-
SOUTHEAST LOUISIANA

CITY           SKY/WX    TMP DP  RH WIND       PRES   REMARKS
N.O. AUDUBON     N/A     62  56  82 MISG        N/A
N.O. INTL ARPT PTCLDY    66  49  54 NE9       30.07F
N.O. LAKEFRONT PTCLDY    69  50  50 NE14      30.08S
N.O. DOWNTOWN* FAIR      66  48  52 CALM      30.08S
SLIDELL        MOCLDY    57  52  83 CALM      30.08S
BATON ROUGE    CLEAR     54  50  86 CALM      30.09F
BOOTHVILLE     CLOUDY    70  53  54 NE5       30.06F
BELLE CHASSE   PTCLDY    55  51  86 CALM      30.07S
BOGALUSA*        N/A     56  49  78 CALM      30.10F
NEW ROADS*     FAIR      51  50  95 NW3       30.10S
GONZALES*      FAIR      57  54  89 N3        30.09S
HAMMOND*       PTCLDY    55  48  76 CALM      30.10S
HOUMA*         CLEAR     54  51  91 CALM      30.08S
PORT FOURCHON* CLEAR     68  57  68 N6        30.09F

$$

LAZ041-044-053-054-240600-
SOUTHWEST LOUISIANA

CITY           SKY/WX    TMP DP  RH WIND       PRES   REMARKS
LAKE CHARLES   CLEAR     55  50  83 NE5       30.10S
LAFAYETTE      CLEAR     56  52  86 NE3       30.09F
PATTERSON      CLEAR     57  54  88 N6        30.11F
SALT POINT       N/A     61  55  81 VRB3      30.08S
NEW IBERIA     CLEAR     56  51  84 N3        30.10F
CHENAULT AIRPK CLEAR     55  50  85 CALM      30.11R

$$

LAZ027-028-240600-
CENTRAL LOUISIANA

CITY           SKY/WX    TMP DP  RH WIND       PRES   REMARKS
FORT POLK      CLEAR     54  51  90 NE2       30.11S
ALEXANDRIA INT CLEAR     49  48  97 CALM      30.10F
ALEXANDRIA     MOCLDY    45  45 100 CALM      30.11F FOG

$$

LAZ001-002-240600-
NORTHWEST LOUISIANA

CITY           SKY/WX    TMP DP  RH WIND       PRES   REMARKS
SHREVEPORT     CLEAR     53  50  89 CALM      30.13S
BARKSDALE AFB  CLEAR     52  49  90 CALM      30.14S
DTN SHREVEPORT CLEAR     53  49  86 CALM      30.14S

$$

LAZ014-016-240600-
NORTHEAST LOUISIANA

CITY           SKY/WX    TMP DP  RH WIND       PRES   REMARKS
MONROE         FOG       47  46  97 N3        30.14F VSB 1/2
TALLULAH       CLEAR     46  45  96 CALM      30.12F

$$




USA.gov is the U.S. government's official web portal to all federal, state and local government web resources and services.